546  
ASUS43 KGLD 151708  
RWRGLD  
 
GOODLAND FORECAST AREA HOURLY WEATHER ROUNDUP  
NATIONAL WEATHER SERVICE GOODLAND KS  
1100 AM MDT WED AUG 15 2018  
   
..OFFICIAL OBSERVATIONS
 
 
 
CITY SKY/WX TMP DP RH WIND PRES REMARKS
 
GOODLAND KS SUNNY 80 56 43 S15 30.04F  
HILL CITY KS SUNNY 77 62 59 VRB3 30.03F  
IMPERIAL NEB SUNNY 78 58 49 SE17G24 30.02F  
MCCOOK NEB SUNNY 78 62 57 S5 30.02F  
AKRON CO SUNNY 81 57 43 SW13 30.06S  
BURLINGTON CO SUNNY 79 54 41 S15G22 30.07F  
LIMON CO SUNNY 75 59 57 S13 30.13S  

 
   
..UNOFFICIAL OBSERVATIONS
 
 
 
CITY SKY/WX TMP DP RH WIND PRES REMARKS
 
COLBY KS SUNNY 77 48 36 SE12 30.06F  
NORTON KS SUNNY 77 64 65 CALM 30.03  
SHARON SPRINGS N/A 77 57 49 SE9G16 N/A  
KIT CARSON CO N/A 78 57 47 MISG N/A  
YUMA CO FAIR N/A N/A N/A S17G26 30.03  

 
 
 
CLICK HERE TO GO TO PREVIOUS BULLETINS.

The Nexlab KS Page
The Nexlab CO Page
The Nexlab NE Page Main Text Page